CFVKO CYXU-ZZZZ

Flight info

Callsign CFVKO
Flight time N/A
Altitude 2000
Route CYXU VFR EASTBOUND
Aircraft C172/L-V/N

Departure

Time 2026-04-22 01:55
Airport London International Airport (CYXU)

Arrival

Time N/A
Airport ZZZZ
Time Latitude Longitude Altitude Speed Heading
2026-04-22 01:54 43.03193 -81.11318 2465 ft 120 kts 72°
2026-04-22 01:55 43.03482 -81.10224 2699 ft 125 kts 68°
2026-04-22 01:55 43.03857 -81.09124 2933 ft 130 kts 62°
2026-04-22 01:55 43.04249 -81.08031 3241 ft 123 kts 60°
2026-04-22 01:55 43.04617 -81.06981 3530 ft 122 kts 59°
2026-04-22 01:56 43.05008 -81.05969 3802 ft 121 kts 57°
2026-04-22 01:56 43.05409 -81.04954 4031 ft 122 kts 55°
2026-04-22 01:56 43.05844 -81.03962 4279 ft 120 kts 48°
2026-04-22 01:56 43.06328 -81.03010 4483 ft 125 kts 49°
2026-04-22 01:57 43.06828 -81.02016 4575 ft 137 kts 48°
2026-04-22 01:57 43.07260 -81.00887 4844 ft 131 kts 63°
2026-04-22 01:57 43.07543 -80.99743 5120 ft 125 kts 66°
2026-04-22 01:57 43.07797 -80.98627 5359 ft 125 kts 68°
2026-04-22 01:58 43.08047 -80.97488 5481 ft 122 kts 68°
2026-04-22 01:58 43.08256 -80.96392 5524 ft 116 kts 70°
2026-04-22 01:58 43.08466 -80.95291 5549 ft 123 kts 69°
2026-04-22 01:58 43.08703 -80.94128 5540 ft 130 kts 68°
2026-04-22 01:59 43.08958 -80.92919 5517 ft 133 kts 67°
2026-04-22 01:59 43.09330 -80.91761 5497 ft 134 kts 56°
2026-04-22 01:59 43.09758 -80.90630 5475 ft 134 kts 55°
2026-04-22 01:59 43.10196 -80.89505 5474 ft 135 kts 56°
2026-04-22 02:00 43.10594 -80.88338 5467 ft 136 kts 59°
2026-04-22 02:00 43.10959 -80.87169 5466 ft 136 kts 60°
2026-04-22 02:00 43.11340 -80.85989 5464 ft 135 kts 59°
2026-04-22 02:00 43.11735 -80.84820 5468 ft 135 kts 58°
2026-04-22 02:01 43.12147 -80.83605 5469 ft 145 kts 59°
2026-04-22 02:01 43.12580 -80.82293 5474 ft 159 kts 60°
2026-04-22 02:01 43.13046 -80.80862 5475 ft 170 kts 61°
2026-04-22 02:01 43.13537 -80.79368 5482 ft 173 kts 60°
2026-04-22 02:02 43.14048 -80.77877 5543 ft 174 kts 60°
2026-04-22 02:02 43.14564 -80.76365 5536 ft 177 kts 60°
2026-04-22 02:02 43.15089 -80.74833 5510 ft 179 kts 60°
2026-04-22 02:02 43.15612 -80.73311 5490 ft 180 kts 60°
2026-04-22 02:03 43.16146 -80.71759 5480 ft 180 kts 60°
2026-04-22 02:03 43.16678 -80.70206 5480 ft 180 kts 60°
2026-04-22 02:03 43.17211 -80.68651 5476 ft 180 kts 60°
2026-04-22 02:03 43.17743 -80.67098 5470 ft 180 kts 60°
2026-04-22 02:04 43.18807 -80.63991 5468 ft 180 kts 60°
2026-04-22 02:04 43.19339 -80.62440 5462 ft 180 kts 60°
2026-04-22 02:04 43.19864 -80.60909 5463 ft 179 kts 60°
2026-04-22 02:05 43.20394 -80.59362 5474 ft 180 kts 60°
2026-04-22 02:05 43.20922 -80.57820 5464 ft 169 kts 60°
2026-04-22 02:05 43.21329 -80.56475 5295 ft 142 kts 65°
2026-04-22 02:05 43.21644 -80.55224 4836 ft 141 kts 69°
2026-04-22 02:06 43.21903 -80.54030 4710 ft 117 kts 72°
2026-04-22 02:06 43.21758 -80.53077 4565 ft 99 kts 139°
2026-04-22 02:06 43.21181 -80.52589 4172 ft 103 kts 171°
2026-04-22 02:06 43.20491 -80.52174 3746 ft 111 kts 170°
2026-04-22 02:07 43.19788 -80.51841 3392 ft 102 kts 180°
2026-04-22 02:07 43.19118 -80.51646 3001 ft 98 kts 179°
2026-04-22 02:07 43.18469 -80.51493 2621 ft 92 kts 185°
2026-04-22 02:07 43.17852 -80.51308 2256 ft 95 kts 167°
2026-04-22 02:08 43.17471 -80.50510 1980 ft 103 kts 116°
2026-04-22 02:08 43.17577 -80.49726 1770 ft 107 kts 27°
2026-04-22 02:08 43.18246 -80.49838 1553 ft 92 kts 329°
2026-04-22 02:08 43.18796 -80.50201 1392 ft 80 kts 335°
2026-04-22 02:09 43.19284 -80.50431 1087 ft 75 kts 340°
2026-04-22 02:09 43.19733 -80.50630 951 ft 53 kts 345°
2026-04-22 02:09 43.19960 -80.50711 943 ft 6 kts 341°
2026-04-22 02:09 43.19968 -80.50715 943 ft 0 kts 340°